Location: Saint-Palais-sur-Mer
(45.6429°N, 1.0859°W)
Time: 13:41:38
(UTC+01:00)

BlueWalker 3 - Pass Details

Date: 27 January 2026
Orbit: 451 x 461 km, 53.2° (Epoch: 13 February)

Event Time Altitude Azimuth Distance (km) Brightness Sun altitude
Rises 19:37:42 0° 273° (W) 2,456 7.0 -16.5°
Reaches altitude 10° 19:40:02 10° 286° (WNW) 1,583 5.5 -16.9°
Maximum altitude 19:43:09 28° 347° (NNW) 881 3.2 -17.4°
Enters shadow 19:44:12 24° 17° (NNE) 984 3.2 -17.6°
